CW7443 Weather Reports


Display with metric or nautical units.
time (UTC)temp
F
wind
direction
speed
MPH
gust
MPH
rain 1hr
in
rain 24hr
in
rain mn
in
humidity
%
barometer
mb
20260508205315 64 108 3.0 9.0 0.00 0.00 0.00 45 1009.8
20260508204826 64 144 0.0 9.0 0.00 0.00 0.00 46 1009.8
20260508204349 64 166 3.0 9.0 0.00 0.00 0.00 45 1009.9
20260508203837 64 110 3.0 9.0 0.00 0.00 0.00 45 1009.9
20260508203341 64 123 2.0 8.0 0.00 0.00 0.00 48 1009.9
20260508202823 64 117 3.0 10.0 0.00 0.00 0.00 46 1010.2
20260508202329 64 296 1.0 11.0 0.00 0.00 0.00 47 1010.2
20260508201838 64 132 1.0 11.0 0.00 0.00 0.00 49 1010.2
20260508201321 64 125 1.0 11.0 0.00 0.00 0.00 48 1010.3
20260508200826 63 100 4.0 11.0 0.00 0.00 0.00 47 1010.3
20260508200316 63 178 1.0 7.0 0.00 0.00 0.00 50 1010.3
20260508195818 63 121 2.0 7.0 0.00 0.00 0.00 50 1010.5
20260508195344 63 105 1.0 5.0 0.00 0.00 0.00 52 1010.5
20260508194828 63 85 1.0 7.0 0.00 0.00 0.00 50 1010.5
20260508194331 63 159 0.0 7.0 0.00 0.00 0.00 51 1010.6
20260508193837 64 182 2.0 6.0 0.00 0.00 0.00 48 1010.6
20260508193322 64 125 1.0 6.0 0.00 0.00 0.00 49 1010.6
20260508192828 65 174 1.0 6.0 0.00 0.00 0.00 49 1010.7
20260508192320 65 125 1.0 6.0 0.00 0.00 0.00 47 1010.7
20260508191846 65 281 1.0 4.0 0.00 0.00 0.00 50 1010.7
20260508191352 65 75 1.0 13.0 0.00 0.00 0.00 49 1010.8
20260508190822 65 145 3.0 13.0 0.00 0.00 0.00 49 1010.8
20260508190327 64 194 1.0 7.0 0.00 0.00 0.00 48 1010.8
20260508185829 65 167 2.0 8.0 0.00 0.00 0.00 50 1011.2
20260508185354 65 224 1.0 5.0 0.00 0.00 0.00 50 1011.2
20260508184821 64 186 2.0 6.0 0.00 0.00 0.00 50 1011.2
20260508184326 64 103 2.0 7.0 0.00 0.00 0.00 52 1011.5
20260508183831 64 167 3.0 7.0 0.00 0.00 0.00 50 1011.5
20260508183320 64 175 1.0 10.0 0.00 0.00 0.00 50 1011.5
20260508182842 64 198 1.0 10.0 0.00 0.00 0.00 50 1011.9
20260508182330 65 119 2.0 7.0 0.00 0.00 0.00 51 1011.9
20260508181823 65 194 1.0 8.0 0.00 0.00 0.00 51 1011.9
20260508181345 64 175 2.0 8.0 0.00 0.00 0.00 50 1012.2
20260508180829 64 250 2.0 9.0 0.00 0.00 0.00 54 1012.2
20260508180315 63 67 1.0 9.0 0.00 0.00 0.00 54 1012.2
20260508175821 62 172 1.0 5.0 0.00 0.00 0.00 54 1012.4
20260508175351 62 128 0.0 6.0 0.00 0.00 0.00 56 1012.4
20260508174829 61 143 2.0 6.0 0.00 0.00 0.00 55 1012.4
20260508174332 61 151 0.0 6.0 0.00 0.00 0.00 58 1012.8
20260508173857 61 151 2.0 6.0 0.00 0.00 0.00 56 1012.8
20260508173319 61 153 0.0 5.0 0.00 0.00 0.00 58 1012.8
20260508172818 60 151 1.0 6.0 0.00 0.00 0.00 55 1012.9
20260508172346 60 91 2.0 7.0 0.00 0.00 0.00 55 1012.9
20260508171831 60 139 2.0 7.0 0.00 0.00 0.00 55 1012.9
20260508171334 60 83 0.0 6.0 0.00 0.00 0.00 56 1013.0
20260508170823 60 82 2.0 6.0 0.00 0.00 0.00 55 1013.0
20260508170329 60 128 2.0 6.0 0.00 0.00 0.00 55 1013.0
20260508165833 60 127 1.0 5.0 0.00 0.00 0.00 55 1013.2
20260508165321 60 115 1.0 9.0 0.00 0.00 0.00 54 1013.2
20260508164828 60 153 2.0 9.0 0.00 0.00 0.00 55 1013.2
20260508164354 60 191 1.0 9.0 0.00 0.00 0.00 54 1013.3
20260508163822 60 160 2.0 9.0 0.00 0.00 0.00 53 1013.3
20260508163328 60 131 1.0 10.0 0.00 0.00 0.00 55 1013.3
20260508162848 60 113 3.0 10.0 0.00 0.00 0.00 53 1013.4
20260508162355 59 67 0.0 8.0 0.00 0.00 0.00 55 1013.4
20260508161820 59 103 2.0 8.0 0.00 0.00 0.00 57 1013.4
20260508161323 59 167 1.0 6.0 0.00 0.00 0.00 55 1013.5
20260508160828 58 112 1.0 5.0 0.00 0.00 0.00 57 1013.5
20260508160338 58 129 2.0 6.0 0.00 0.00 0.00 57 1013.5
20260508155821 57 155 2.0 8.0 0.00 0.00 0.00 56 1013.5
20260508155325 57 113 1.0 8.0 0.00 0.00 0.00 57 1013.5
20260508154831 57 259 1.0 4.0 0.00 0.00 0.00 59 1013.5
20260508154337 57 159 1.0 7.0 0.00 0.00 0.00 60 1013.9
20260508153822 56 151 1.0 7.0 0.00 0.00 0.00 60 1013.9
20260508153333 56 125 2.0 7.0 0.00 0.00 0.00 61 1013.9
20260508152835 55 159 2.0 7.0 0.00 0.00 0.00 63 1014.1
20260508152321 55 132 0.0 6.0 0.00 0.00 0.00 65 1014.1
20260508151830 55 122 1.0 6.0 0.00 0.00 0.00 64 1014.1
20260508151332 55 111 1.0 5.0 0.00 0.00 0.00 64 1014.0
20260508150842 55 136 1.0 5.0 0.00 0.00 0.00 63 1014.0
20260508150346 55 142 0.0 2.0 0.00 0.00 0.00 64 1014.0
20260508145831 55 142 0.0 4.0 0.00 0.00 0.00 62 1014.0
20260508145316 54 142 0.0 4.0 0.00 0.00 0.00 61 1014.0
20260508144824 54 192 0.0 8.0 0.00 0.00 0.00 62 1014.0
20260508144329 54 182 1.0 8.0 0.00 0.00 0.00 60 1014.0
20260508143835 54 151 1.0 9.0 0.00 0.00 0.00 61 1014.0
20260508143317 55 70 1.0 9.0 0.00 0.00 0.00 61 1014.0
20260508142819 55 283 1.0 7.0 0.00 0.00 0.00 59 1014.0
20260508142323 55 143 2.0 7.0 0.00 0.00 0.00 58 1014.0
20260508141828 55 83 1.0 7.0 0.00 0.00 0.00 59 1014.0
20260508141333 55 188 1.0 7.0 0.00 0.00 0.00 58 1014.0
20260508140823 55 88 0.0 12.0 0.00 0.00 0.00 59 1014.0
20260508140327 55 211 2.0 12.0 0.00 0.00 0.00 62 1014.0
20260508135834 55 155 1.0 12.0 0.00 0.00 0.00 60 1014.0
20260508135320 54 123 1.0 12.0 0.00 0.00 0.00 61 1014.0
20260508134828 54 85 0.0 5.0 0.00 0.00 0.00 63 1014.0
20260508134330 53 148 1.0 7.0 0.00 0.00 0.00 62 1014.0
20260508133835 53 76 2.0 9.0 0.00 0.00 0.00 61 1014.0
20260508133317 53 166 2.0 9.0 0.00 0.00 0.00 62 1014.0
20260508132818 53 164 1.0 8.0 0.00 0.00 0.00 62 1013.9
20260508132327 53 107 4.0 8.0 0.00 0.00 0.00 60 1013.9
20260508131816 53 100 0.0 5.0 0.00 0.00 0.00 65 1013.9
20260508131319 52 208 2.0 6.0 0.00 0.00 0.00 62 1014.0
20260508130845 52 184 1.0 6.0 0.00 0.00 0.00 64 1014.0
20260508130333 51 150 2.0 6.0 0.00 0.00 0.00 65 1014.0
20260508125821 51 109 1.0 5.0 0.00 0.00 0.00 65 1013.8
20260508125327 51 154 1.0 6.0 0.00 0.00 0.00 66 1013.8
20260508124833 50 169 1.0 6.0 0.00 0.00 0.00 65 1013.8
20260508124335 50 210 1.0 6.0 0.00 0.00 0.00 66 1014.0
20260508123818 50 136 0.0 3.0 0.00 0.00 0.00 67 1014.0
20260508123344 49 135 0.0 3.0 0.00 0.00 0.00 67 1014.0
20260508122826 49 80 0.0 4.0 0.00 0.00 0.00 67 1014.0
20260508122332 49 231 1.0 6.0 0.00 0.00 0.00 68 1014.0
20260508121838 48 141 2.0 6.0 0.00 0.00 0.00 68 1014.0
20260508121320 48 165 1.0 5.0 0.00 0.00 0.00 70 1013.9
20260508120830 48 178 1.0 5.0 0.00 0.00 0.00 70 1013.9
20260508120318 47 123 0.0 3.0 0.00 0.00 0.00 71 1013.9
20260508115821 47 76 0.0 4.0 0.00 0.00 0.00 71 1013.9
20260508115328 47 173 0.0 4.0 0.00 0.00 0.00 72 1013.9
20260508114813 46 138 0.0 3.0 0.00 0.00 0.00 72 1013.9
20260508114320 46 259 1.0 3.0 0.00 0.00 0.00 72 1013.7
20260508113826 46 125 0.0 6.0 0.00 0.00 0.00 72 1013.7
20260508113314 46 165 0.0 6.0 0.00 0.00 0.00 73 1013.7
20260508112838 46 63 0.0 2.0 0.00 0.00 0.00 73 1013.5
20260508112322 45 156 0.0 4.0 0.00 0.00 0.00 75 1013.5
20260508111814 45 176 0.0 4.0 0.00 0.00 0.00 75 1013.5
20260508111338 45 116 0.0 2.0 0.00 0.00 0.00 76 1013.4
20260508110823 45 115 0.0 2.0 0.00 0.00 0.00 76 1013.4
20260508110329 45 116 0.0 2.0 0.00 0.00 0.00 77 1013.4
20260508105830 45 158 0.0 0.0 0.00 0.00 0.00 78 1013.3
20260508105317 44 158 0.0 2.0 0.00 0.00 0.00 78 1013.3
20260508104823 44 158 0.0 2.0 0.00 0.00 0.00 80 1013.3
20260508104324 44 159 0.0 2.0 0.00 0.00 0.00 80 1013.2
20260508103853 43 51 0.0 0.0 0.00 0.00 0.00 82 1013.2
20260508103316 43 51 0.0 0.0 0.00 0.00 0.00 84 1013.2
20260508102818 43 51 0.0 0.0 0.00 0.00 0.00 86 1013.1
20260508102328 43 51 0.0 0.0 0.00 0.00 0.00 84 1013.1
20260508101816 43 51 0.0 0.0 0.00 0.00 0.00 84 1013.1
20260508101321 43 51 0.0 0.0 0.00 0.00 0.00 82 1013.2
20260508100845 43 51 0.0 0.0 0.00 0.00 0.00 82 1013.2
20260508100336 43 51 0.0 0.0 0.00 0.00 0.00 82 1013.2
20260508095822 43 51 0.0 0.0 0.00 0.00 0.00 80 1013.1
20260508095328 43 51 0.0 0.0 0.00 0.00 0.00 81 1013.1
20260508094853 44 51 0.0 0.0 0.00 0.00 0.00 81 1013.1
20260508094335 44 51 0.0 0.0 0.00 0.00 0.00 81 1013.1
20260508093820 44 51 0.0 0.0 0.00 0.00 0.00 79 1013.1
20260508093346 44 51 0.0 0.0 0.00 0.00 0.00 81 1013.1
20260508092828 44 51 0.0 0.0 0.00 0.00 0.00 81 1013.3
20260508092318 44 51 0.0 0.0 0.00 0.00 0.00 80 1013.3
20260508091833 44 53 0.0 0.0 0.00 0.00 0.00 80 1013.3
20260508091318 44 53 0.0 0.0 0.00 0.00 0.00 81 1013.2
20260508090842 44 53 0.0 0.0 0.00 0.00 0.00 80 1013.2
20260508090330 44 53 0.0 0.0 0.00 0.00 0.00 80 1013.2
20260508085836 44 53 0.0 0.0 0.00 0.00 0.00 80 1013.1
20260508085342 44 53 0.0 0.0 0.00 0.00 0.00 80 1013.1
20260508084827 44 53 0.0 0.0 0.00 0.00 0.00 79 1013.1
20260508084351 44 53 0.0 0.0 0.00 0.00 0.00 79 1013.1
20260508083858 45 53 0.0 0.0 0.00 0.00 0.00 80 1013.1
20260508083319 45 53 0.0 0.0 0.00 0.00 0.00 78 1013.1
20260508082822 45 53 0.0 0.0 0.00 0.00 0.00 76 1013.2
20260508082327 45 53 0.0 0.0 0.00 0.00 0.00 75 1013.2
20260508081814 46 53 0.0 0.0 0.00 0.00 0.00 76 1013.2
20260508081322 46 53 0.0 0.0 0.00 0.00 0.00 76 1013.3
20260508080847 46 53 0.0 0.0 0.00 0.00 0.00 74 1013.3
20260508080312 47 53 0.0 0.0 0.00 0.00 0.00 74 1013.3
20260508075818 47 53 0.0 0.0 0.00 0.00 0.00 72 1013.4
20260508075323 47 53 0.0 0.0 0.00 0.00 0.00 72 1013.4
20260508074829 48 53 0.0 0.0 0.00 0.00 0.00 71 1013.4
20260508074350 48 53 0.0 0.0 0.00 0.00 0.00 70 1013.4
20260508073853 48 53 0.0 0.0 0.00 0.00 0.00 71 1013.4
20260508073319 48 53 0.0 0.0 0.00 0.00 0.00 71 1013.4
20260508072821 48 53 0.0 0.0 0.00 0.00 0.00 71 1013.9
20260508072350 48 53 0.0 0.0 0.00 0.00 0.00 69 1013.9
20260508071819 48 53 0.0 0.0 0.00 0.00 0.00 70 1013.9
20260508071347 47 53 0.0 0.0 0.00 0.00 0.00 71 1013.8
20260508070851 47 53 0.0 0.0 0.00 0.00 0.00 69 1013.8
20260508070315 47 53 0.0 0.0 0.00 0.00 0.00 75 1013.8
20260508065824 47 53 0.0 0.0 0.00 0.00 0.00 73 1014.0
20260508065332 47 53 0.0 0.0 0.00 0.00 0.00 74 1014.0
20260508064817 48 53 0.0 0.0 0.00 0.00 0.00 73 1014.0
20260508064321 48 53 0.0 0.0 0.00 0.00 0.00 72 1014.0
20260508063829 48 53 0.0 0.0 0.00 0.00 0.00 74 1014.0
20260508063334 48 53 0.0 0.0 0.00 0.00 0.00 71 1014.0
20260508062856 47 53 0.0 0.0 0.00 0.00 0.00 72 1014.0
20260508062320 47 53 0.0 0.0 0.00 0.00 0.00 74 1014.0
20260508061825 47 53 0.0 0.0 0.00 0.00 0.00 77 1014.0
20260508061331 47 53 0.0 0.0 0.00 0.00 0.00 73 1013.4
20260508060839 47 53 0.0 0.0 0.00 0.00 0.00 72 1013.4
20260508060329 47 53 0.0 0.0 0.00 0.00 0.00 76 1013.4
20260508055835 46 53 0.0 0.0 0.00 0.00 0.00 74 1013.6
20260508055321 46 53 0.0 0.0 0.00 0.00 0.00 76 1013.6
20260508054825 46 53 0.0 0.0 0.00 0.00 0.00 74 1013.6
20260508054329 46 53 0.0 1.0 0.00 0.00 0.00 80 1013.6
20260508053834 46 53 0.0 1.0 0.00 0.00 0.00 79 1013.6
20260508053318 45 53 0.0 0.0 0.00 0.00 0.00 78 1013.6
20260508052822 45 53 0.0 0.0 0.00 0.00 0.00 80 1013.6
20260508052327 45 53 0.0 0.0 0.00 0.00 0.00 78 1013.6
20260508051832 45 53 0.0 0.0 0.00 0.00 0.00 79 1013.6
20260508051336 45 53 0.0 0.0 0.00 0.00 0.00 79 1013.8
20260508050316 45 53 0.0 0.0 0.00 0.00 0.00 82 1013.8
20260508045819 44 53 0.0 0.0 0.00 0.00 0.00 83 1014.0
20260508045325 44 53 0.0 0.0 0.00 0.00 0.00 81 1014.0
20260508044830 44 53 0.0 0.0 0.00 0.00 0.00 81 1014.0
20260508044336 44 53 0.0 0.0 0.00 0.00 0.00 80 1014.0
20260508043821 44 53 0.0 0.0 0.00 0.00 0.00 80 1014.0
20260508043346 44 53 0.0 0.0 0.00 0.00 0.00 79 1014.0
20260508042827 44 53 0.0 0.0 0.00 0.00 0.00 79 1014.0
20260508042335 44 53 0.0 0.0 0.00 0.00 0.00 79 1014.0
20260508041819 44 53 0.0 0.0 0.00 0.00 0.00 79 1014.0
20260508041319 44 53 0.0 0.0 0.00 0.00 0.00 79 1013.8
20260508040823 44 53 0.0 0.0 0.00 0.00 0.00 81 1013.8
20260508040332 44 53 0.0 0.0 0.00 0.00 0.00 82 1013.8
20260508035818 44 53 0.0 0.0 0.00 0.00 0.00 82 1014.0
20260508035344 44 53 0.0 0.0 0.00 0.00 0.00 81 1014.0
20260508034848 44 53 0.0 0.0 0.00 0.00 0.00 82 1014.0
20260508034335 44 53 0.0 0.0 0.00 0.00 0.00 82 1013.7
20260508033900 44 53 0.0 0.0 0.00 0.00 0.00 81 1013.7
20260508033323 44 53 0.0 0.0 0.00 0.00 0.00 80 1013.7
20260508032826 44 53 0.0 0.0 0.00 0.00 0.00 78 1013.8
20260508032335 44 53 0.0 0.0 0.00 0.00 0.00 79 1013.8
20260508031817 44 53 0.0 0.0 0.00 0.00 0.00 81 1013.8
20260508031319 44 53 0.0 0.0 0.00 0.00 0.00 78 1013.8
20260508030826 44 53 0.0 0.0 0.00 0.00 0.00 78 1013.8
20260508030316 44 53 0.0 0.0 0.00 0.00 0.00 79 1013.8
20260508025823 45 53 0.0 0.0 0.00 0.00 0.00 83 1013.8
20260508025329 45 53 0.0 0.0 0.00 0.00 0.00 81 1013.8
20260508024834 45 53 0.0 0.0 0.00 0.00 0.00 76 1013.8
20260508024340 45 53 0.0 0.0 0.00 0.00 0.00 76 1014.0
20260508023825 45 53 0.0 0.0 0.00 0.00 0.00 76 1014.0
20260508023331 45 53 0.0 0.0 0.00 0.00 0.00 76 1014.0
20260508022835 45 53 0.0 0.0 0.00 0.00 0.00 81 1013.8
20260508022318 45 53 0.0 0.0 0.00 0.00 0.00 78 1013.8
20260508021824 45 53 0.0 0.0 0.00 0.00 0.00 79 1013.8
20260508021346 45 53 0.0 0.0 0.00 0.00 0.00 78 1013.8
20260508020831 46 53 0.0 0.0 0.00 0.00 0.00 78 1013.8
20260508020321 46 53 0.0 0.0 0.00 0.00 0.00 75 1013.8
20260508015824 46 53 0.0 0.0 0.00 0.00 0.00 74 1013.8
20260508015332 46 53 0.0 0.0 0.00 0.00 0.00 75 1013.8
20260508014817 46 53 0.0 0.0 0.00 0.00 0.00 74 1013.8
20260508014323 46 53 0.0 0.0 0.00 0.00 0.00 73 1013.7
20260508013848 46 53 0.0 0.0 0.00 0.00 0.00 72 1013.7
20260508013333 47 53 0.0 0.0 0.00 0.00 0.00 71 1013.7
20260508012835 47 53 0.0 0.0 0.00 0.00 0.00 71 1013.5
20260508012318 47 53 0.0 0.0 0.00 0.00 0.00 70 1013.5
20260508011827 48 53 0.0 0.0 0.00 0.00 0.00 70 1013.5
20260508011329 48 53 0.0 0.0 0.00 0.00 0.00 71 1013.4
20260508010854 48 53 0.0 0.0 0.00 0.00 0.00 65 1013.4
20260508010323 49 53 0.0 0.0 0.00 0.00 0.00 67 1013.4
20260508005829 49 53 0.0 0.0 0.00 0.00 0.00 68 1013.4
20260508005337 49 53 0.0 0.0 0.00 0.00 0.00 68 1013.4
20260508004822 49 53 0.0 0.0 0.00 0.00 0.00 65 1013.4
20260508004347 50 53 0.0 0.0 0.00 0.00 0.00 61 1013.2
20260508003830 50 53 0.0 0.0 0.00 0.00 0.00 61 1013.2
20260508003318 51 53 0.0 0.0 0.00 0.00 0.00 61 1013.2
20260508002849 51 53 0.0 0.0 0.00 0.00 0.00 57 1013.1
20260508002333 52 53 0.0 0.0 0.00 0.00 0.00 57 1013.1
20260508001816 52 53 0.0 0.0 0.00 0.00 0.00 56 1013.1
20260508001322 52 53 0.0 0.0 0.00 0.00 0.00 56 1013.0
20260508000847 53 53 0.0 0.0 0.00 0.00 0.00 57 1013.0
20260508000315 53 53 0.0 0.0 0.00 0.00 0.00 53 1013.0
20260507235823 53 53 0.0 2.0 0.00 0.00 0.00 52 1013.0
20260507235328 54 53 0.0 2.0 0.00 0.00 0.00 49 1013.0
20260507234834 54 53 0.0 2.0 0.00 0.00 0.00 48 1013.0
20260507234321 54 53 0.0 2.0 0.00 0.00 0.00 48 1012.9
20260507233829 54 52 0.0 1.0 0.00 0.00 0.00 48 1012.9
20260507233318 54 51 0.0 0.0 0.00 0.00 0.00 46 1012.9
20260507232818 54 51 0.0 3.0 0.00 0.00 0.00 49 1012.9
20260507232326 54 51 0.0 4.0 0.00 0.00 0.00 48 1012.9
20260507231830 54 52 0.0 4.0 0.00 0.00 0.00 49 1012.9
20260507231336 55 53 1.0 4.0 0.00 0.00 0.00 48 1012.9
20260507230821 55 95 0.0 4.0 0.00 0.00 0.00 49 1012.9
20260507230329 55 157 0.0 4.0 0.00 0.00 0.00 49 1012.9
20260507225832 55 64 0.0 5.0 0.00 0.00 0.00 46 1013.0
20260507225341 55 76 1.0 5.0 0.00 0.00 0.00 44 1013.0
20260507224829 56 34 1.0 7.0 0.00 0.00 0.00 45 1013.0
20260507224333 56 40 0.0 7.0 0.00 0.00 0.00 47 1013.1
20260507223859 56 26 0.0 4.0 0.00 0.00 0.00 46 1013.1
20260507223322 56 26 1.0 4.0 0.00 0.00 0.00 41 1013.1
20260507222846 57 89 0.0 6.0 0.00 0.00 0.00 43 1013.0
20260507222330 57 89 0.0 6.0 0.00 0.00 0.00 44 1013.0
20260507221819 57 119 0.0 5.0 0.00 0.00 0.00 43 1013.0
20260507221344 57 54 0.0 7.0 0.00 0.00 0.00 48 1012.9
20260507220855 58 53 1.0 7.0 0.00 0.00 0.00 41 1012.9
20260507220318 58 36 1.0 7.0 0.00 0.00 0.00 42 1012.9
20260507215818 59 48 1.0 4.0 0.00 0.00 0.00 42 1012.9
20260507215330 58 223 1.0 6.0 0.00 0.00 0.00 44 1012.9
20260507214818 58 222 1.0 6.0 0.00 0.00 0.00 43 1012.9
20260507214321 58 107 1.0 4.0 0.00 0.00 0.00 43 1012.9
20260507213846 58 312 1.0 5.0 0.00 0.00 0.00 45 1012.9
20260507213330 58 29 0.0 5.0 0.00 0.00 0.00 47 1012.9
20260507212855 59 9 0.0 5.0 0.00 0.00 0.00 45 1012.8
20260507212321 58 43 2.0 6.0 0.00 0.00 0.00 43 1012.8
20260507211826 58 41 1.0 6.0 0.00 0.00 0.00 43 1012.8
20260507211327 58 42 1.0 7.0 0.00 0.00 0.00 45 1012.5
20260507210833 58 69 1.0 7.0 0.00 0.00 0.00 43 1012.5
20260507210321 58 15 2.0 9.0 0.00 0.00 0.00 44 1012.5
20260507205840 59 53 2.0 9.0 0.00 0.00 0.00 41 1012.5
20260507205324 59 49 1.0 9.0 0.00 0.00 0.00 45 1012.5